• In Hungary
  • List of Countries
  • For 7 days
  • Water Temperature
  • Satellite Maps
  • Weather Map
  • News
  • Weather Widgets
  • user-avatar
    Login

    Hourly Weather Postomino

    Today, 23 May, Wednesday

    Time Temperature Precipitation Wind Pressure Humidity
    00:00 +10°C° 0 mm 2 mps 762 mmHg 91%
    01:00 +10°C° 0 mm 2 mps 762 mmHg 92%
    02:00 +10°C° 0 mm 2 mps 762 mmHg 93%
    03:00 +10°C° 0 mm 1 mps 763 mmHg 93%
    04:00 +10°C° 0 mm 1 mps 763 mmHg 93%
    05:00 +12°C° 0 mm 1 mps 763 mmHg 86%
    06:00 +14°C° 0 mm 1 mps 764 mmHg 78%
    07:00 +16°C° 0 mm 1 mps 764 mmHg 70%
    08:00 +19°C° 0 mm 1 mps 765 mmHg 63%
    09:00 +19°C° 0 mm 2 mps 765 mmHg 56%
    10:00 +21°C° 0 mm 2 mps 765 mmHg 49%
    11:00 +21°C° 0 mm 3 mps 766 mmHg 48%
    12:00 +22°C° 0 mm 3 mps 766 mmHg 47%
    13:00 +22°C° 0 mm 4 mps 766 mmHg 46%
    14:00 +22°C° 0 mm 4 mps 766 mmHg 47%
    15:00 +22°C° 0 mm 4 mps 766 mmHg 49%
    16:00 +21°C° 0 mm 5 mps 766 mmHg 51%
    17:00 +20°C° 0 mm 4 mps 766 mmHg 56%
    18:00 +19°C° 0 mm 4 mps 766 mmHg 61%
    19:00 +17°C° 0 mm 4 mps 766 mmHg 66%
    20:00 +15°C° 0 mm 4 mps 767 mmHg 70%
    21:00 +13°C° 0 mm 4 mps 767 mmHg 75%
    22:00 +11°C° 0 mm 4 mps 767 mmHg 79%
    23:00 +11°C° 0 mm 3 mps 768 mmHg 79%

    Tomorrow, 24 May, Thursday

    Time Temperature Precipitation Wind Pressure Humidity
    00:00 +11°C° 0 mm 3 mps 768 mmHg 80%
    01:00 +10°C° 0 mm 3 mps 768 mmHg 80%
    02:00 +10°C° 0 mm 3 mps 768 mmHg 80%
    03:00 +10°C° 0 mm 3 mps 768 mmHg 80%
    04:00 +10°C° 0 mm 3 mps 768 mmHg 80%
    05:00 +12°C° 0 mm 3 mps 768 mmHg 73%
    06:00 +14°C° 0 mm 4 mps 769 mmHg 66%
    07:00 +17°C° 0 mm 4 mps 769 mmHg 59%
    08:00 +19°C° 0 mm 4 mps 769 mmHg 54%
    09:00 +20°C° 0 mm 4 mps 769 mmHg 49%
    10:00 +22°C° 0 mm 5 mps 769 mmHg 44%
    11:00 +22°C° 0 mm 5 mps 769 mmHg 44%
    12:00 +23°C° 0 mm 6 mps 768 mmHg 44%
    13:00 +23°C° 0 mm 6 mps 768 mmHg 43%
    14:00 +23°C° 0 mm 6 mps 768 mmHg 44%
    15:00 +22°C° 0 mm 6 mps 768 mmHg 45%
    16:00 +22°C° 0 mm 6 mps 767 mmHg 46%
    17:00 +20°C° 0 mm 6 mps 767 mmHg 51%
    18:00 +17°C° 0 mm 6 mps 767 mmHg 56%
    19:00 +16°C° 0 mm 5 mps 767 mmHg 61%
    20:00 +14°C° 0 mm 5 mps 767 mmHg 67%
    21:00 +12°C° 0 mm 4 mps 767 mmHg 73%
    22:00 +10°C° 0 mm 4 mps 768 mmHg 79%
    23:00 +10°C° 0 mm 4 mps 767 mmHg 80%

    Day after tomorrow, 25 May, Friday

    Time Temperature Precipitation Wind Pressure Humidity
    00:00 +8°C° 0 mm 4 mps 767 mmHg 81%
    01:00 +9°C° 0 mm 3 mps 767 mmHg 82%
    02:00 +9°C° 0 mm 3 mps 767 mmHg 82%
    03:00 +9°C° 0 mm 3 mps 767 mmHg 81%
    04:00 +9°C° 0 mm 3 mps 767 mmHg 80%
    05:00 +12°C° 0 mm 3 mps 767 mmHg 74%
    06:00 +15°C° 0 mm 2 mps 767 mmHg 67%
    07:00 +18°C° 0 mm 2 mps 767 mmHg 61%
    08:00 +20°C° 0 mm 3 mps 767 mmHg 56%
    09:00 +22°C° 0 mm 3 mps 767 mmHg 52%
    10:00 +25°C° 0 mm 4 mps 767 mmHg 47%
    11:00 +25°C° 0 mm 4 mps 767 mmHg 45%
    12:00 +26°C° 0 mm 5 mps 767 mmHg 43%
    13:00 +26°C° 0 mm 6 mps 767 mmHg 41%
    14:00 +26°C° 0 mm 6 mps 766 mmHg 44%
    15:00 +24°C° 0 mm 6 mps 766 mmHg 48%
    16:00 +24°C° 0 mm 6 mps 766 mmHg 51%
    17:00 +22°C° 0 mm 6 mps 766 mmHg 58%
    18:00 +21°C° 0 mm 6 mps 766 mmHg 64%
    19:00 +20°C° 0 mm 6 mps 766 mmHg 71%
    20:00 +17°C° 0 mm 5 mps 766 mmHg 77%
    21:00 +16°C° 0 mm 5 mps 766 mmHg 84%
    22:00 +15°C° 0 mm 5 mps 766 mmHg 90%
    23:00 +15°C° 0 mm 4 mps 766 mmHg 92%

    26 May, Saturday

    Time Temperature Precipitation Wind Pressure Humidity
    00:00 +14°C° 0 mm 4 mps 766 mmHg 94%
    01:00 +14°C° 0 mm 4 mps 766 mmHg 96%
    02:00 +14°C° 0 mm 4 mps 766 mmHg 96%
    03:00 +14°C° 0 mm 4 mps 766 mmHg 96%
    04:00 +14°C° 0 mm 4 mps 766 mmHg 96%
    05:00 +15°C° 0 mm 4 mps 766 mmHg 90%
    06:00 +18°C° 0 mm 4 mps 766 mmHg 84%
    07:00 +20°C° 0 mm 4 mps 766 mmHg 78%
    08:00 +21°C° 0.2 mm 4 mps 766 mmHg 73%
    09:00 +22°C° 0.2 mm 4 mps 766 mmHg 68%
    10:00 +25°C° 0.2 mm 5 mps 766 mmHg 63%
    11:00 +25°C° 0.6 mm 5 mps 766 mmHg 62%
    12:00 +25°C° 0.6 mm 5 mps 766 mmHg 61%
    13:00 +23°C° 0.6 mm 5 mps 766 mmHg 61%
    14:00 +23°C° 0.4 mm 5 mps 766 mmHg 66%
    15:00 +22°C° 0.4 mm 6 mps 766 mmHg 71%
    16:00 +22°C° 0.4 mm 6 mps 766 mmHg 75%
    17:00 +21°C° 0.5 mm 6 mps 766 mmHg 78%
    18:00 +20°C° 0.5 mm 5 mps 766 mmHg 81%
    19:00 +19°C° 0.5 mm 5 mps 766 mmHg 84%
    20:00 +17°C° 0.3 mm 5 mps 766 mmHg 88%
    21:00 +16°C° 0.3 mm 5 mps 766 mmHg 91%
    22:00 +15°C° 0.3 mm 5 mps 766 mmHg 95%
    23:00 +15°C° 0.3 mm 5 mps 766 mmHg 95%

    27 May, Sunday

    Time Temperature Precipitation Wind Pressure Humidity
    00:00 +15°C° 0.3 mm 5 mps 766 mmHg 96%
    01:00 +15°C° 0.3 mm 5 mps 765 mmHg 97%
    02:00 +15°C° 0 mm 5 mps 765 mmHg 97%
    03:00 +15°C° 0 mm 5 mps 765 mmHg 97%
    04:00 +15°C° 0 mm 5 mps 765 mmHg 97%
    05:00 +15°C° 0 mm 5 mps 765 mmHg 95%
    06:00 +16°C° 0 mm 5 mps 765 mmHg 93%
    07:00 +17°C° 0 mm 5 mps 765 mmHg 92%
    08:00 +19°C° 0.1 mm 5 mps 766 mmHg 89%
    09:00 +19°C° 0.1 mm 5 mps 766 mmHg 86%
    10:00 +20°C° 0.1 mm 5 mps 766 mmHg 83%
    11:00 +21°C° 0.2 mm 5 mps 766 mmHg 79%
    12:00 +22°C° 0.2 mm 6 mps 766 mmHg 75%
    13:00 +23°C° 0.2 mm 6 mps 766 mmHg 71%
    14:00 +23°C° 0.4 mm 6 mps 766 mmHg 71%
    15:00 +23°C° 0.4 mm 6 mps 765 mmHg 71%
    16:00 +23°C° 0.4 mm 6 mps 765 mmHg 71%
    17:00 +22°C° 0.6 mm 6 mps 765 mmHg 75%
    18:00 +22°C° 0.6 mm 6 mps 765 mmHg 78%
    19:00 +21°C° 0.6 mm 6 mps 765 mmHg 81%
    20:00 +20°C° 0.7 mm 6 mps 765 mmHg 84%
    21:00 +19°C° 0.7 mm 6 mps 766 mmHg 86%
    22:00 +17°C° 0.7 mm 6 mps 766 mmHg 89%
    23:00 +16°C° 0.5 mm 6 mps 766 mmHg 90%

    28 May, Monday

    Time Temperature Precipitation Wind Pressure Humidity
    00:00 +16°C° 0.5 mm 6 mps 766 mmHg 90%
    01:00 +15°C° 0.5 mm 6 mps 765 mmHg 91%
    02:00 +15°C° 0.2 mm 6 mps 765 mmHg 90%
    03:00 +15°C° 0.2 mm 5 mps 765 mmHg 90%
    04:00 +15°C° 0.2 mm 5 mps 765 mmHg 90%
    05:00 +16°C° 0.3 mm 5 mps 766 mmHg 87%
    06:00 +17°C° 0.3 mm 5 mps 766 mmHg 85%
    07:00 +19°C° 0.3 mm 5 mps 766 mmHg 82%
    08:00 +20°C° 0.1 mm 5 mps 766 mmHg 73%
    09:00 +22°C° 0.1 mm 5 mps 766 mmHg 63%
    10:00 +25°C° 0.1 mm 5 mps 767 mmHg 54%
    11:00 +24°C° 0 mm 6 mps 766 mmHg 51%
    12:00 +26°C° 0 mm 6 mps 766 mmHg 49%
    13:00 +27°C° 0 mm 6 mps 766 mmHg 47%
    14:00 +27°C° 0 mm 7 mps 766 mmHg 48%
    15:00 +26°C° 0 mm 7 mps 766 mmHg 49%
    16:00 +26°C° 0 mm 7 mps 765 mmHg 51%
    17:00 +24°C° 0 mm 7 mps 765 mmHg 56%
    18:00 +22°C° 0 mm 6 mps 765 mmHg 61%
    19:00 +21°C° 0 mm 6 mps 765 mmHg 67%
    20:00 +20°C° 0 mm 6 mps 766 mmHg 71%
    21:00 +19°C° 0 mm 6 mps 766 mmHg 75%
    22:00 +17°C° 0 mm 6 mps 766 mmHg 79%
    23:00 +16°C° 0 mm 5 mps 766 mmHg 80%
    Show more